User: anonymous   Login
Location: Corralito
(14.1667°N, 87.1833°W)
Time: 11:30:17
(UTC+00:00)
Language:

Nadezhda 4 Rocket - Orbit

View from above orbital plane
View from above orbital plane
View from above satellite
View from above satellite

Ground track
Ground track

The orbit data is extracted from the following two-line orbital elements,

1 23180U 94041B   20226.90815854 +.00000038 +00000-0 +22909-4 0  9991
2 23180 082.9487 152.5147 0027716 228.1332 197.8557 13.77984872311534
Epoch (UTC): 13 August 2020 21:47:44
Eccentricity: 0.0027716
inclination: 82.9487°
perigee height: 950 km
apogee height: 991 km
right ascension of ascending node: 152.5147°
argument of perigee: 228.1332°
revolutions per day: 13.77984872
mean anomaly at epoch: 197.8557°
orbit number at epoch: 31153

The dashed part of the orbit path shows where the satellite is in the earth's shadow,  

DLR